EW7067 Weather Reports


Display with metric or nautical units.
time (UTC)temp
F
wind
direction
speed
MPH
gust
MPH
rain 1hr
in
rain 24hr
in
rain mn
in
humidity
%
barometer
mb
20200409033427 63 132 3.0 5.0 0.00 0.00 0.00 67 1002.5
20200409032927 63 132 2.0 4.0 0.00 0.00 0.00 68 1002.7
20200409032427 64 16 2.0 4.0 0.00 0.00 0.00 66 1002.8
20200409031927 63 16 1.0 3.0 0.00 0.00 0.00 67 1002.8
20200409031428 62 16 1.0 3.0 0.00 0.00 0.00 68 1003.2
20200409030928 62 16 1.0 3.0 0.00 0.00 0.00 69 1003.1
20200409030424 62 16 1.0 3.0 0.00 0.00 0.00 70 1003.2
20200409025925 62 16 0.0 2.0 0.00 0.00 0.00 70 1003.3
20200409025424 62 16 1.0 4.0 0.00 0.00 0.00 70 1003.3
20200409024925 63 16 1.0 4.0 0.00 0.00 0.00 68 1003.3
20200409024426 63 16 2.0 2.0 0.00 0.00 0.00 68 1003.4
20200409023923 64 16 1.0 2.0 0.00 0.00 0.00 66 1003.4
20200409023423 64 16 2.0 3.0 0.00 0.00 0.00 66 1003.6
20200409022923 64 16 1.0 3.0 0.00 0.00 0.00 66 1003.5
20200409022423 64 16 0.0 2.0 0.00 0.00 0.00 67 1003.5
20200409021922 64 16 0.0 3.0 0.00 0.00 0.00 66 1003.5
20200409021419 64 16 0.0 3.0 0.00 0.00 0.00 66 1003.7
20200409020919 64 16 1.0 3.0 0.00 0.00 0.00 66 1003.8
20200409020416 64 16 1.0 3.0 0.00 0.00 0.00 66 1003.7
20200409015919 64 336 1.0 8.0 0.00 0.00 0.00 66 1003.8
20200409015417 64 336 2.0 8.0 0.00 0.00 0.00 67 1003.9
20200409014918 64 38 1.0 6.0 0.00 0.00 0.00 67 1003.9
20200409014415 64 326 1.0 4.0 0.00 0.00 0.00 67 1003.9
20200409013914 64 326 3.0 10.0 0.00 0.00 0.00 67 1004.0
20200409013415 64 331 4.0 10.0 0.00 0.00 0.00 67 1004.2
20200409012915 64 44 5.0 10.0 0.00 0.00 0.00 67 1004.3
20200409012415 64 44 4.0 10.0 0.00 0.00 0.00 67 1004.6
20200409011915 65 38 4.0 11.0 0.00 0.00 0.00 66 1004.8
20200409011413 65 46 4.0 11.0 0.00 0.00 0.00 65 1004.9
20200409010914 65 40 4.0 10.0 0.00 0.00 0.00 65 1005.2
20200409010413 65 29 4.0 10.0 0.00 0.00 0.00 64 1005.3
20200409005914 65 34 6.0 17.0 0.00 0.00 0.00 64 1005.4
20200409005411 66 13 7.0 17.0 0.00 0.00 0.00 63 1005.6
20200409004911 66 333 6.0 14.0 0.00 0.00 0.00 63 1005.7
20200409004411 66 325 6.0 14.0 0.00 0.00 0.00 63 1005.9
20200409003912 66 0 7.0 18.0 0.00 0.00 0.00 61 1005.7
20200409003412 67 17 6.0 19.0 0.00 0.00 0.00 60 1005.7
20200409002911 67 13 7.0 19.0 0.00 0.00 0.00 60 1005.8
20200409002410 67 18 9.0 20.0 0.00 0.00 0.00 58 1005.8
20200409001911 67 304 9.0 20.0 0.00 0.00 0.00 58 1006.0
20200409001410 67 31 9.0 18.0 0.00 0.00 0.00 57 1005.6
20200409000912 68 39 10.0 20.0 0.00 0.00 0.00 56 1005.6
20200409000410 68 28 11.0 20.0 0.00 0.00 0.00 55 1005.5
20200408235911 69 5 12.0 26.0 0.00 0.00 0.00 54 1005.5
20200408235412 70 54 13.0 28.0 0.00 0.00 0.00 53 1005.4
20200408234911 72 19 7.0 28.0 0.00 0.00 0.00 53 1005.3
20200408234416 74 20 2.0 7.0 0.00 0.00 0.00 62 1004.8
20200408233916 75 19 2.0 4.0 0.00 0.00 0.00 60 1004.5
20200408233412 75 19 2.0 4.0 0.00 0.00 0.00 60 1004.5
20200408232912 75 24 2.0 5.0 0.00 0.00 0.00 59 1004.6
20200408232410 75 24 2.0 5.0 0.00 0.00 0.00 60 1004.5
20200408231912 76 24 2.0 8.0 0.00 0.00 0.00 60 1004.4
20200408231410 76 24 2.0 8.0 0.00 0.00 0.00 59 1004.4
20200408230914 76 295 3.0 7.0 0.00 0.00 0.00 58 1004.3
20200408230411 76 316 3.0 11.0 0.00 0.00 0.00 58 1004.3
20200408225910 77 301 3.0 12.0 0.00 0.00 0.00 59 1004.2
20200408225411 77 41 3.0 12.0 0.00 0.00 0.00 59 1004.0
20200408224912 77 56 3.0 9.0 0.00 0.00 0.00 60 1003.9
20200408224410 77 315 3.0 9.0 0.00 0.00 0.00 59 1003.9
20200408223912 77 346 2.0 9.0 0.00 0.00 0.00 59 1003.7
20200408223410 77 21 3.0 8.0 0.00 0.00 0.00 58 1003.6
20200408222912 78 321 4.0 9.0 0.00 0.00 0.00 58 1003.5
20200408222411 78 355 5.0 12.0 0.00 0.00 0.00 56 1003.4
20200408221910 78 313 6.0 14.0 0.00 0.00 0.00 55 1003.6
20200408221411 79 333 6.0 14.0 0.00 0.00 0.00 54 1003.6
20200408220911 80 285 5.0 10.0 0.00 0.00 0.00 53 1003.6
20200408220412 80 323 5.0 10.0 0.00 0.00 0.00 51 1003.4
20200408215911 81 314 6.0 12.0 0.00 0.00 0.00 53 1003.4
20200408215410 80 295 5.0 12.0 0.00 0.00 0.00 51 1003.4
20200408214911 81 267 5.0 12.0 0.00 0.00 0.00 49 1003.3
20200408214412 82 242 5.0 10.0 0.00 0.00 0.00 49 1003.1
20200408213910 82 315 4.0 11.0 0.00 0.00 0.00 53 1003.0
20200408213410 81 301 4.0 11.0 0.00 0.00 0.00 56 1003.0
20200408212910 81 296 4.0 11.0 0.00 0.00 0.00 54 1002.9
20200408212410 81 298 5.0 16.0 0.00 0.00 0.00 52 1002.7
20200408211910 82 302 5.0 16.0 0.00 0.00 0.00 52 1002.7
20200408211410 82 175 5.0 11.0 0.00 0.00 0.00 53 1002.8
20200408210908 82 291 6.0 10.0 0.00 0.00 0.00 53 1002.8
20200408210407 82 300 5.0 10.0 0.00 0.00 0.00 54 1002.8
20200408205909 82 271 5.0 12.0 0.00 0.00 0.00 53 1002.7
20200408205408 82 292 5.0 12.0 0.00 0.00 0.00 51 1002.8
20200408204907 82 252 4.0 12.0 0.00 0.00 0.00 57 1002.8
20200408204406 81 298 4.0 12.0 0.00 0.00 0.00 55 1002.7
20200408203907 81 293 5.0 12.0 0.00 0.00 0.00 55 1003.0
20200408203408 80 238 7.0 13.0 0.00 0.00 0.00 54 1003.2
20200408202908 81 0 7.0 13.0 0.00 0.00 0.00 55 1003.3
20200408202406 81 275 6.0 14.0 0.00 0.00 0.00 56 1003.3
20200408201905 80 301 7.0 14.0 0.00 0.00 0.00 54 1003.4
20200408201404 81 263 7.0 14.0 0.00 0.00 0.00 54 1003.5
20200408200904 81 310 7.0 17.0 0.00 0.00 0.00 54 1003.5
20200408200404 81 285 8.0 17.0 0.00 0.00 0.00 53 1003.5
20200408195904 81 289 7.0 14.0 0.00 0.00 0.00 53 1003.6
20200408195405 80 298 8.0 14.0 0.00 0.00 0.00 55 1003.6
20200408194904 81 292 7.0 14.0 0.00 0.00 0.00 54 1003.6
20200408194402 81 259 5.0 13.0 0.00 0.00 0.00 57 1003.6
20200408193859 80 323 6.0 12.0 0.00 0.00 0.00 58 1003.6
20200408193359 80 294 5.0 11.0 0.00 0.00 0.00 57 1003.9
20200408192858 80 321 4.0 9.0 0.00 0.00 0.00 58 1003.9
20200408192358 80 11 5.0 12.0 0.00 0.00 0.00 59 1003.9
20200408191856 80 276 6.0 12.0 0.00 0.00 0.00 56 1004.0
20200408191356 80 309 6.0 11.0 0.00 0.00 0.00 60 1004.2
20200408190857 80 295 5.0 11.0 0.00 0.00 0.00 59 1004.3
20200408190357 80 5 5.0 14.0 0.00 0.00 0.00 60 1004.3
20200408185854 80 46 6.0 14.0 0.00 0.00 0.00 62 1004.4
20200408185355 79 326 7.0 14.0 0.00 0.00 0.00 61 1004.4
20200408184855 80 311 6.0 14.0 0.00 0.00 0.00 62 1004.5
20200408184354 80 15 5.0 14.0 0.00 0.00 0.00 61 1004.5
20200408183852 80 355 6.0 15.0 0.00 0.00 0.00 63 1004.6
20200408183352 80 19 6.0 15.0 0.00 0.00 0.00 59 1004.8
20200408182852 80 313 5.0 14.0 0.00 0.00 0.00 63 1004.9
20200408182352 79 313 6.0 14.0 0.00 0.00 0.00 63 1005.0
20200408181854 79 344 7.0 16.0 0.00 0.00 0.00 64 1005.0
20200408181353 79 314 6.0 16.0 0.00 0.00 0.00 64 1005.1
20200408180850 80 314 6.0 16.0 0.00 0.00 0.00 62 1005.1
20200408180350 79 65 6.0 16.0 0.00 0.01 0.00 61 1005.1
20200408175850 79 331 6.0 13.0 0.00 0.01 0.00 61 1005.2
20200408175350 79 25 7.0 15.0 0.00 0.01 0.00 62 1005.3
20200408174849 79 315 6.0 15.0 0.00 0.01 0.00 62 1005.4
20200408174350 79 306 5.0 14.0 0.00 0.01 0.00 63 1005.5
20200408173851 79 315 6.0 14.0 0.00 0.01 0.00 63 1005.5
20200408173351 79 338 5.0 11.0 0.00 0.01 0.00 64 1005.6
20200408172850 79 5 6.0 14.0 0.00 0.01 0.00 63 1005.6
20200408172350 79 320 6.0 14.0 0.00 0.01 0.00 63 1005.7
20200408171850 79 307 5.0 11.0 0.00 0.01 0.00 64 1005.8
20200408171348 78 277 5.0 15.0 0.00 0.01 0.00 66 1005.9
20200408170849 78 38 6.0 15.0 0.00 0.01 0.00 66 1005.9
20200408170348 78 291 6.0 12.0 0.00 0.01 0.00 65 1006.0
20200408165848 78 44 5.0 11.0 0.00 0.01 0.00 63 1006.0
20200408165348 78 294 4.0 11.0 0.00 0.01 0.00 64 1006.2
20200408164849 77 346 5.0 11.0 0.00 0.01 0.00 67 1006.3
20200408164348 77 355 6.0 12.0 0.00 0.01 0.00 66 1006.3
20200408163848 77 313 6.0 13.0 0.00 0.01 0.00 65 1006.3
20200408163347 77 299 6.0 13.0 0.00 0.01 0.00 67 1006.4
20200408162846 77 338 6.0 16.0 0.00 0.01 0.00 67 1006.4
20200408162346 76 318 8.0 16.0 0.00 0.01 0.00 67 1006.5
20200408161847 76 311 9.0 16.0 0.00 0.01 0.00 65 1006.7
20200408161346 76 296 7.0 16.0 0.00 0.01 0.00 67 1006.8
20200408160846 77 24 6.0 16.0 0.00 0.01 0.00 66 1006.9
20200408160347 76 249 6.0 13.0 0.00 0.01 0.00 68 1006.8
20200408155846 76 278 7.0 15.0 0.00 0.01 0.00 65 1006.8
20200408155347 76 265 6.0 15.0 0.00 0.01 0.00 66 1006.8
20200408154846 76 349 5.0 10.0 0.00 0.01 0.00 66 1006.7
20200408154346 75 298 6.0 14.0 0.00 0.01 0.00 67 1006.9
20200408153844 75 5 7.0 15.0 0.00 0.01 0.00 69 1006.9
20200408153344 75 355 7.0 15.0 0.00 0.01 0.00 68 1006.8
20200408152846 75 274 7.0 16.0 0.00 0.01 0.00 69 1006.9
20200408152344 75 315 8.0 17.0 0.00 0.01 0.00 67 1007.0
20200408151845 74 317 9.0 18.0 0.00 0.01 0.00 68 1007.0
20200408151345 74 307 11.0 18.0 0.00 0.01 0.00 68 1006.8
20200408150843 74 294 9.0 17.0 0.00 0.01 0.00 67 1007.0
20200408150345 74 286 7.0 17.0 0.00 0.01 0.00 69 1006.8
20200408145843 74 5 9.0 17.0 0.00 0.01 0.00 70 1006.8
20200408145343 73 355 11.0 20.0 0.00 0.01 0.00 70 1006.8
20200408144843 73 322 13.0 23.0 0.00 0.01 0.00 69 1006.6
20200408144342 73 298 12.0 23.0 0.00 0.01 0.00 70 1006.6
20200408143842 73 297 12.0 20.0 0.00 0.01 0.00 71 1006.6
20200408143342 73 315 11.0 19.0 0.00 0.01 0.00 71 1006.6
20200408142841 73 338 11.0 19.0 0.00 0.01 0.00 71 1006.7
20200408142343 72 347 11.0 19.0 0.00 0.01 0.00 73 1006.7
20200408141843 72 311 9.0 19.0 0.00 0.01 0.00 73 1006.6
20200408141343 72 310 8.0 18.0 0.00 0.01 0.00 72 1006.7
20200408140841 72 282 8.0 18.0 0.00 0.01 0.00 72 1006.7
20200408140340 72 313 8.0 16.0 0.00 0.01 0.00 73 1006.7
20200408135840 72 300 9.0 18.0 0.00 0.01 0.00 73 1006.6
20200408135341 71 317 9.0 19.0 0.00 0.01 0.00 74 1006.5
20200408134839 71 307 10.0 19.0 0.00 0.01 0.00 75 1006.6
20200408134340 71 309 9.0 17.0 0.00 0.01 0.00 75 1006.5
20200408133841 71 303 8.0 15.0 0.00 0.01 0.00 75 1006.4
20200408133341 70 306 7.0 15.0 0.00 0.01 0.00 75 1006.5
20200408132839 70 314 8.0 17.0 0.00 0.01 0.00 76 1006.4
20200408132340 69 300 9.0 17.0 0.00 0.01 0.00 78 1006.5
20200408131841 69 290 6.0 15.0 0.00 0.01 0.00 79 1006.5
20200408131341 68 319 6.0 13.0 0.00 0.01 0.00 81 1006.6
20200408130841 67 309 5.0 13.0 0.00 0.01 0.00 83 1006.6
20200408130339 65 350 4.0 12.0 0.00 0.01 0.00 90 1006.6
20200408125838 62 328 1.0 9.0 0.00 0.01 0.00 95 1006.7
20200408125337 60 87 1.0 4.0 0.00 0.01 0.00 94 1006.7
20200408124836 58 87 1.0 4.0 0.00 0.01 0.00 93 1006.7
20200408124336 57 15 0.0 2.0 0.00 0.01 0.00 93 1006.8
20200408123837 55 15 0.0 2.0 0.00 0.01 0.00 93 1006.8
20200408123335 54 15 1.0 4.0 0.00 0.01 0.00 93 1006.6
20200408122835 54 15 1.0 4.0 0.00 0.01 0.00 93 1006.6
20200408122336 53 65 1.0 4.0 0.00 0.01 0.00 93 1006.5
20200408121836 52 65 1.0 3.0 0.00 0.01 0.00 93 1006.6
20200408121336 52 65 1.0 3.0 0.00 0.01 0.00 93 1006.6
20200408120835 51 65 1.0 2.0 0.00 0.01 0.00 93 1006.5
20200408120335 50 65 1.0 2.0 0.00 0.01 0.00 94 1006.5
20200408115836 50 65 0.0 1.0 0.00 0.01 0.00 94 1006.4
20200408115335 50 65 0.0 1.0 0.00 0.01 0.00 94 1006.4
20200408114836 49 63 0.0 1.0 0.00 0.01 0.00 93 1006.3
20200408114337 49 63 0.0 0.0 0.00 0.01 0.00 94 1006.2
20200408113835 49 63 0.0 1.0 0.00 0.01 0.00 94 1006.1
20200408113336 49 63 0.0 1.0 0.00 0.01 0.00 94 1006.0
20200408112835 49 30 0.0 1.0 0.00 0.01 0.00 94 1005.9
20200408112335 49 30 0.0 1.0 0.00 0.01 0.00 94 1005.7
20200408111835 49 30 0.0 0.0 0.00 0.01 0.00 94 1005.6
20200408111336 50 30 0.0 0.0 0.00 0.01 0.00 94 1005.6
20200408110835 50 30 0.0 0.0 0.00 0.01 0.00 93 1005.5
20200408110335 49 30 0.0 1.0 0.00 0.01 0.00 94 1005.4
20200408105835 49 30 0.0 2.0 0.00 0.01 0.00 94 1005.4
20200408105335 49 30 0.0 2.0 0.00 0.01 0.00 94 1005.4
20200408104837 49 30 0.0 1.0 0.00 0.01 0.00 94 1005.3
20200408104335 49 30 0.0 1.0 0.00 0.01 0.00 94 1005.3
20200408103836 49 30 0.0 1.0 0.00 0.01 0.00 94 1005.3
20200408103335 50 30 0.0 1.0 0.00 0.01 0.00 94 1005.2
20200408102835 50 30 0.0 1.0 0.00 0.01 0.00 94 1005.1
20200408102335 50 30 1.0 2.0 0.00 0.01 0.00 94 1005.2
20200408101836 50 30 1.0 2.0 0.00 0.01 0.00 94 1005.3
20200408101336 50 30 0.0 0.0 0.00 0.01 0.00 94 1005.2
20200408100835 50 30 0.0 0.0 0.00 0.01 0.00 94 1005.3
20200408100336 50 30 0.0 0.0 0.00 0.01 0.00 94 1005.3
20200408095833 50 30 0.0 0.0 0.00 0.01 0.00 94 1005.2
20200408095333 50 30 0.0 0.0 0.00 0.01 0.00 94 1005.1
20200408094833 50 30 0.0 0.0 0.00 0.01 0.00 94 1005.2
20200408094335 50 30 0.0 0.0 0.00 0.01 0.00 94 1005.2
20200408093834 50 30 0.0 0.0 0.00 0.01 0.00 94 1005.1
20200408093330 50 30 0.0 0.0 0.00 0.01 0.00 94 1005.1
20200408092830 51 30 0.0 1.0 0.00 0.01 0.00 94 1005.1
20200408092330 51 30 1.0 2.0 0.00 0.01 0.00 94 1005.1
20200408091830 51 30 1.0 2.0 0.00 0.01 0.00 94 1005.2
20200408091330 51 30 0.0 2.0 0.00 0.01 0.00 94 1005.2
20200408090830 51 30 0.0 0.0 0.00 0.01 0.00 94 1005.3
20200408090329 51 30 0.0 0.0 0.00 0.01 0.00 94 1005.3
20200408085830 51 30 0.0 0.0 0.00 0.01 0.00 94 1005.2
20200408085329 52 30 0.0 0.0 0.00 0.01 0.00 94 1005.3
20200408084829 52 30 0.0 0.0 0.00 0.01 0.00 94 1005.3
20200408084329 52 30 0.0 0.0 0.00 0.01 0.00 94 1005.3
20200408083827 51 30 0.0 0.0 0.00 0.01 0.00 94 1005.4
20200408083328 51 30 0.0 0.0 0.00 0.01 0.00 94 1005.3
20200408082827 52 30 0.0 0.0 0.00 0.01 0.00 94 1005.4
20200408082325 53 30 0.0 0.0 0.00 0.01 0.00 94 1005.4
20200408081825 53 30 0.0 0.0 0.00 0.01 0.00 94 1005.4
20200408081325 53 30 0.0 1.0 0.00 0.01 0.00 94 1005.4
20200408080825 53 30 0.0 1.0 0.00 0.01 0.00 94 1005.4
20200408080326 53 30 0.0 0.0 0.00 0.01 0.00 94 1005.5
20200408075825 53 30 0.0 0.0 0.00 0.01 0.00 94 1005.6
20200408075326 53 30 0.0 0.0 0.00 0.01 0.00 94 1005.5
20200408074823 53 30 0.0 1.0 0.00 0.01 0.00 94 1005.5
20200408074324 53 30 0.0 2.0 0.00 0.01 0.00 94 1005.5
20200408073823 53 30 1.0 2.0 0.00 0.01 0.00 94 1005.5
20200408073323 53 30 1.0 3.0 0.00 0.01 0.00 94 1005.5
20200408072823 53 30 1.0 3.0 0.00 0.01 0.00 95 1005.4
20200408072323 53 30 1.0 3.0 0.00 0.01 0.00 94 1005.5
20200408071825 53 30 1.0 3.0 0.00 0.01 0.00 94 1005.4
20200408071322 54 30 1.0 3.0 0.00 0.01 0.00 95 1005.5
20200408070823 54 275 1.0 3.0 0.00 0.01 0.00 94 1005.7
20200408070321 54 275 1.0 4.0 0.00 0.01 0.00 95 1005.7
20200408065819 55 275 1.0 4.0 0.00 0.01 0.00 94 1005.7
20200408065319 55 175 0.0 2.0 0.00 0.01 0.00 94 1005.6
20200408064819 55 175 0.0 2.0 0.00 0.01 0.00 94 1005.7
20200408064321 55 175 0.0 2.0 0.00 0.01 0.00 94 1005.8
20200408063819 55 175 1.0 2.0 0.00 0.01 0.00 94 1005.9
20200408063319 55 175 0.0 2.0 0.00 0.01 0.00 94 1006.0
20200408062819 56 175 0.0 1.0 0.00 0.01 0.00 94 1006.0
20200408062321 56 175 0.0 1.0 0.00 0.01 0.00 94 1006.1
20200408061820 56 175 0.0 2.0 0.00 0.01 0.00 94 1006.1
20200408061319 56 175 0.0 2.0 0.00 0.01 0.00 94 1006.1
20200408060819 56 175 0.0 1.0 0.00 0.01 0.00 94 1006.1
20200408060318 56 175 0.0 1.0 0.00 0.01 0.00 93 1006.2
20200408055817 57 175 0.0 1.0 0.00 0.01 0.00 94 1006.4
20200408055317 57 175 0.0 1.0 0.00 0.01 0.00 94 1006.3
20200408054817 57 175 0.0 1.0 0.00 0.01 0.00 94 1006.4
20200408054316 57 175 0.0 1.0 0.00 0.01 0.00 93 1006.5
20200408053818 58 175 0.0 1.0 0.00 0.01 0.00 92 1006.7
20200408053317 58 175 0.0 1.0 0.00 0.01 0.00 92 1006.8
20200408052819 58 175 0.0 1.0 0.00 0.01 0.00 92 1006.8
20200408052317 59 175 0.0 1.0 0.00 0.01 0.00 91 1006.9
20200408051815 59 175 0.0 2.0 0.00 0.01 0.00 90 1006.9
20200408051316 60 175 0.0 2.0 0.00 0.01 0.00 90 1007.0
20200408050817 60 175 0.0 2.0 0.00 0.01 0.00 89 1007.0
20200408050315 61 175 0.0 2.0 0.00 0.01 0.00 87 1007.0
20200408045816 62 175 1.0 2.0 0.00 0.01 0.00 87 1007.0
20200408045315 62 175 1.0 2.0 0.00 0.01 0.00 87 1006.9
20200408044815 62 175 0.0 2.0 0.00 0.01 0.00 86 1007.0
20200408044315 63 175 0.0 2.0 0.00 0.01 0.00 85 1007.0
20200408043823 64 175 1.0 2.0 0.00 0.01 0.00 85 1007.2
20200408043314 64 175 1.0 2.0 0.00 0.01 0.00 85 1007.3
20200408042814 64 175 1.0 3.0 0.00 0.01 0.00 85 1007.4
20200408042315 64 175 1.0 3.0 0.00 0.01 0.00 85 1007.5
20200408041814 64 175 1.0 2.0 0.00 0.01 0.00 84 1007.5
20200408041313 64 175 1.0 2.0 0.00 0.01 0.00 84 1007.6
20200408040813 64 175 1.0 2.0 0.00 0.01 0.00 84 1007.7
20200408040313 64 175 1.0 2.0 0.00 0.01 0.00 84 1007.7
20200408035813 64 175 1.0 2.0 0.00 0.01 0.01 84 1007.8
20200408035312 64 175 1.0 3.0 0.00 0.01 0.01 84 1007.8
20200408034810 64 175 1.0 3.0 0.00 0.01 0.01 85 1007.8
20200408034309 64 175 1.0 2.0 0.00 0.01 0.01 85 1007.7